Weather in Bol'shoy Samovets

Russia / Lipetsk Oblast     52°31′52″N   39°56′31″E
temp.,
°C
wind,
m/s
gust,
m/s
humid.,
%
clouds,
%
prec.,
mm/h
press.,
hPa
HPBL,
m
14 april, wed
wed1400:00+13se513535 0.0 1023318
03:00+10se41062100 0.0 1023182
06:00+9ese3768100 0.0 1022125
09:00+14se5848100 0.0 1021360
12:00+18se683269 0.0 10191001
15:00+20se68245 0.0 10182208
18:00+19se5832100 0.0 1017347
21:00+15ese5124586 0.0 1017289
15 april, thu
thu1500:00+12ese3855100 0.0 1017140
03:00+11e3559100 0.0 101691
06:00+11ese1165100 0.0 101517
09:00+14s225597 0.0 1016263
12:00+18nne334187 0.0 1014802
15:00+19e343529 0.0 10132151
18:00+17sw234862 0.0 1013463
21:00+14nne115932 0.0 101414
16 april, fri
fri1600:00+14e1261100 0.0 101419
03:00+13sw2365100 0.0 101437
06:00+11sw227398 0.0 101523
09:00+14ssw11625 0.0 1016251
12:00+18s3444100 0.0 10161574
15:00+18sse4644100 0.0 10161639
18:00+15e5669100 2.1 1016422
21:00+12e348320 3.8 1017146
17 april, sat
sat1700:00+11ese118064 0.0 101811
03:00+10ene228199 0.0 101816
06:00+9ene018798 0.0 101910
09:00+13ene6125999 0.0 1016507
12:00+17ese694799 0.1 10191487
15:00+18se6949100 0.6 10191755
18:00+12wsw4587100 5.5 1021282
21:00+11wnw1289100 8.0 1023141
18 april, sun
sun1800:00+10sse119163 0.6 102333
03:00+9e239472 0.6 102491
06:00+9ene479330 0.1 1025253
09:00+11e695728 0.1 1027648
12:00+14e674855 0.0 10271373
15:00+15ene67325 0.0 10271908
18:00+14e464659 0.0 1027691
21:00+10sw11735 0.0 102814